Flag for South Korea Weather past 2 weeks in Busan, South Korea

Now
79 °F

Sunny.


Feels Like: 79 °F
Forecast: 60 / 77 °F
Wind: 16 mph from Southeast

Location: Pusan / Kimhae International Airport

Current Time: Jun 3, 2015 at 3:09:45 PM

Latest Report: Jun 3, 2015 at 2:00 PM


Visibility: 10 mi

Pressure: 29.68 "Hg

Humidity: 45%

Dew point: 55 °F

Location of BusanLocation

Historic Weather in Busan — Graph

°F

Busan temperature yesterday

Maximum temperature yesterday: 77 °F (at 3:00 PM)
Minimum temperature yesterday: 66 °F (at 2:00 AM)
Average temperature yesterday: 70 °F

Past Weeks' High & Low Weather Summary

 TemperatureHumidityPressure
High90 °F (May 26, 1:00 PM)100% (May 31, 5:00 AM)30.01 "Hg (May 31, 5:00 AM)
Low54 °F (May 21, 4:00 AM)26% (May 26, 1:00 PM)29.62 "Hg (May 30, 3:00 PM)
Average69 °F64%29.80 "Hg
* Reported May 19 2:00 PM — Jun 3 2:00 PM, Busan, Weather by CustomWeather, © 2015

Note: Actual official high and low records may vary slightly from our data, if they occured in-between our weather recording intervals... More about our weather records

Advertising

Busan weather history for previous 24 hours

 ConditionsComfort  
Time TempWeatherWind HumidityBarometerVisibility
2:00 PM
Wed, Jun 3
79 °FSunny.16 mph45%29.68 "Hg10 mi
1:00 PM81 °FSunny.13 mph39%29.68 "Hg10 mi
12:00 PM84 °FSunny.8 mph29%29.68 "Hg10 mi
11:00 AM82 °FSunny.7 mph32%29.68 "Hg10 mi
10:01 AM79 °FPassing clouds.9 mph42%29.68 "HgN/A
9:00 AM73 °FSunny.9 mph57%29.68 "Hg10 mi
8:00 AM72 °FClear.8 mph69%29.68 "Hg6 mi
7:00 AM70 °FClear.5 mph78%29.68 "Hg5 mi
6:00 AM68 °FFog.6 mph83%29.65 "Hg3 mi
5:00 AM68 °FFog.5 mph88%29.65 "Hg3 mi
4:00 AM66 °FClear.1 mph88%29.65 "Hg4 mi
3:01 AM68 °FFog.3 mph83%29.67 "Hg4 mi
2:00 AM68 °FLight rain. Clear.3 mph88%29.65 "Hg4 mi
1:00 AM68 °FLight rain. Clear.2 mph88%29.68 "Hg4 mi
12:00 AM70 °FLight rain. Clear.3 mph88%29.68 "Hg5 mi
11:00 PM
Tue, Jun 2
70 °FLight rain. Clear.5 mph83%29.68 "Hg6 mi
10:00 PM70 °FLight rain. Overcast.3 mph83%29.71 "HgN/A
9:00 PM70 °FLight rain. Overcast.2 mph83%29.71 "HgN/A
8:00 PM72 °FLight rain. Overcast.8 mph73%29.71 "HgN/A
7:00 PM72 °FSunny.7 mph73%29.71 "Hg10 mi
6:00 PM73 °FSunny.9 mph69%29.71 "Hg10 mi
5:00 PM73 °FPartly sunny.12 mph69%29.71 "Hg6 mi
4:00 PM75 °FClear.13 mph61%29.74 "Hg6 mi
3:00 PM77 °FClear.9 mph54%29.77 "Hg6 mi
Weather by CustomWeather, © 2015

See weather overviewHow to use our weather pages